Time,TemperatureF,DewpointF,PressureIn,WindDirection,WindDirectionDegrees,WindSpeedMPH,WindSpeedGustMPH,Humidity,HourlyPrecipIn,Conditions,Clouds,dailyrainin,SolarRadiationWatts/m^2,SoftwareType,DateUTC
2013-01-04 00:30:00,13.0,9.6,29.98,West,281,0.0,0.0,86,0.00,CLR,,0.00,0.0,WeatherDisplay:10.37,2013-01-04 05:30:00,
2013-01-04 01:00:00,13.4,10.5,29.96,West,281,0.0,0.0,88,0.00,CLR,,0.00,0.0,WeatherDisplay:10.37,2013-01-04 06:00:00,
2013-01-04 01:30:00,13.3,10.4,29.96,West,281,0.0,0.0,88,0.00,CLR,,0.00,0.0,WeatherDisplay:10.37,2013-01-04 06:30:00,
2013-01-04 02:00:00,12.7,9.8,29.96,West,281,0.0,1.0,88,0.00,CLR,,0.00,0.0,WeatherDisplay:10.37,2013-01-04 07:00:00,
2013-01-04 02:30:00,12.5,9.9,29.96,West,281,0.0,1.0,89,0.00,CLR,,0.00,0.0,WeatherDisplay:10.37,2013-01-04 07:30:00,
2013-01-04 03:00:00,12.6,10.0,29.96,West,281,0.0,0.0,89,0.00,CLR,,0.00,0.0,WeatherDisplay:10.37,2013-01-04 08:00:00,
2013-01-04 03:30:00,13.2,10.3,29.95,West,281,0.0,1.0,88,0.00,CLR,,0.00,0.0,WeatherDisplay:10.37,2013-01-04 08:30:00,
2013-01-04 04:00:00,13.4,10.8,29.94,West,281,0.0,1.0,89,0.00,CLR,,0.00,0.0,WeatherDisplay:10.37,2013-01-04 09:00:00,
2013-01-04 04:30:00,13.5,10.8,29.93,West,281,0.0,1.0,89,0.00,CLR,,0.00,0.0,WeatherDisplay:10.37,2013-01-04 09:30:00,
2013-01-04 05:00:00,13.1,11.0,29.93,West,281,0.0,1.0,91,0.00,CLR,,0.00,0.0,WeatherDisplay:10.37,2013-01-04 10:00:00,
2013-01-04 05:30:00,12.9,10.8,29.94,West,281,0.0,1.0,91,0.00,CLR,,0.00,0.0,WeatherDisplay:10.37,2013-01-04 10:30:00,
2013-01-04 06:00:00,13.2,11.1,29.94,West,281,0.0,1.0,91,0.00,CLR,,0.00,0.0,WeatherDisplay:10.37,2013-01-04 11:00:00,
2013-01-04 06:30:00,15.5,13.6,29.94,South,187,0.0,4.0,92,0.00,CLR,,0.00,0.0,WeatherDisplay:10.37,2013-01-04 11:30:00,
2013-01-04 07:00:00,18.2,16.0,29.94,SSW,201,0.0,5.0,91,0.00,OVC,,0.00,0.0,WeatherDisplay:10.37,2013-01-04 12:00:00,
2013-01-04 07:30:00,19.6,16.9,29.95,SSW,192,0.0,2.0,89,0.00,CLR,,0.00,25.0,WeatherDisplay:10.37,2013-01-04 12:30:00,
2013-01-04 08:00:00,21.2,18.2,29.95,SW,227,0.0,4.0,88,0.00,FEW,,0.00,67.0,WeatherDisplay:10.37,2013-01-04 13:00:00,
2013-01-04 08:30:00,24.2,20.6,29.95,South,191,0.0,4.0,86,0.00,BKN,,0.00,49.0,WeatherDisplay:10.37,2013-01-04 13:30:00,
2013-01-04 09:00:00,26.6,21.9,29.94,South,173,0.0,8.0,82,0.00,SCT,,0.00,172.0,WeatherDisplay:10.37,2013-01-04 14:00:00,
2013-01-04 09:30:00,29.5,23.5,29.94,SSE,156,1.0,8.0,78,0.00,FEW,,0.00,169.0,WeatherDisplay:10.37,2013-01-04 14:30:00,
2013-01-04 10:00:00,31.2,23.9,29.93,SSW,198,1.0,12.0,74,0.00,SCT,,0.00,149.0,WeatherDisplay:10.37,2013-01-04 15:00:00,
2013-01-04 10:30:00,32.3,24.3,29.92,SW,217,1.0,12.0,72,0.00,SCT,,0.00,199.0,WeatherDisplay:10.37,2013-01-04 15:30:00,
2013-01-04 11:00:00,33.6,24.5,29.91,South,179,2.0,8.0,69,0.00,FEW,,0.00,316.0,WeatherDisplay:10.37,2013-01-04 16:00:00,
2013-01-04 11:30:00,34.4,24.6,29.89,SW,218,0.0,12.0,67,0.00,FEW,,0.00,302.0,WeatherDisplay:10.37,2013-01-04 16:30:00,
2013-01-04 12:00:00,36.2,25.2,29.86,SW,232,2.0,15.0,64,0.00,CLR,,0.00,592.0,WeatherDisplay:10.37,2013-01-04 17:00:00,
2013-01-04 12:30:00,36.2,25.2,29.84,SSW,194,0.0,17.0,64,0.01,RA,,0.01,288.0,WeatherDisplay:10.37,2013-01-04 17:30:00,
2013-01-04 13:00:00,35.9,24.9,29.82,SSW,209,5.0,9.0,64,0.00,SCT,,0.01,165.0,WeatherDisplay:10.37,2013-01-04 18:00:00,
2013-01-04 13:30:00,36.0,25.0,29.80,SW,222,3.0,15.0,64,0.00,FEW,,0.01,169.0,WeatherDisplay:10.37,2013-01-04 18:30:00,
2013-01-04 14:00:00,36.2,25.1,29.80,SSW,192,1.0,10.0,64,0.00,SCT,,0.01,113.0,WeatherDisplay:10.37,2013-01-04 19:00:00,
2013-01-04 14:30:00,35.8,25.5,29.80,SW,223,2.0,12.0,66,0.00,BKN,,0.01,63.0,WeatherDisplay:10.37,2013-01-04 19:30:00,
2013-01-04 15:00:00,35.4,25.5,29.80,SSW,206,2.0,10.0,67,0.00,BKN,,0.01,53.0,WeatherDisplay:10.37,2013-01-04 20:00:00,
2013-01-04 15:30:00,35.1,25.9,29.81,SW,227,1.0,7.0,69,0.00,BKN,,0.01,30.0,WeatherDisplay:10.37,2013-01-04 20:30:00,
2013-01-04 16:00:00,34.7,26.2,29.81,South,179,0.0,5.0,71,0.00,BKN,,0.01,11.0,WeatherDisplay:10.37,2013-01-04 21:00:00,
2013-01-04 16:30:00,33.9,25.8,29.81,South,173,0.0,4.0,72,0.00,OVC,,0.01,0.0,WeatherDisplay:10.37,2013-01-04 21:30:00,
2013-01-04 17:00:00,33.0,25.3,29.81,SSW,193,0.0,4.0,73,0.00,CLR,,0.01,0.0,WeatherDisplay:10.37,2013-01-04 22:00:00,
2013-01-04 17:29:00,32.4,25.0,29.81,South,174,0.0,5.0,74,0.00,CLR,,0.01,0.0,WeatherDisplay:10.37,2013-01-04 22:29:00,
2013-01-04 18:00:00,32.2,24.5,29.82,SSE,164,0.0,4.0,73,0.00,CLR,,0.01,0.0,WeatherDisplay:10.37,2013-01-04 23:00:00,
2013-01-04 18:29:00,30.8,24.1,29.82,SSE,165,0.0,2.0,76,0.00,CLR,,0.01,0.0,WeatherDisplay:10.37,2013-01-04 23:29:00,
2013-01-04 19:00:00,29.9,23.6,29.82,SSE,165,0.0,1.0,77,0.00,CLR,,0.01,0.0,WeatherDisplay:10.37,2013-01-05 00:00:00,
2013-01-04 19:30:00,29.7,23.4,29.83,SSE,159,0.0,5.0,77,0.00,CLR,,0.01,0.0,WeatherDisplay:10.37,2013-01-05 00:30:00,
2013-01-04 20:00:00,29.0,23.0,29.83,SSE,163,0.0,3.0,78,0.00,CLR,,0.01,0.0,WeatherDisplay:10.37,2013-01-05 01:00:00,
2013-01-04 20:30:00,28.4,22.7,29.83,SSE,165,0.0,3.0,79,0.00,CLR,,0.01,0.0,WeatherDisplay:10.37,2013-01-05 01:30:00,
2013-01-04 21:00:00,27.9,22.8,29.83,SSE,165,0.0,2.0,81,0.00,CLR,,0.01,0.0,WeatherDisplay:10.37,2013-01-05 02:00:00,
2013-01-04 21:30:00,29.2,24.4,29.83,South,173,0.0,4.0,82,0.00,CLR,,0.01,0.0,WeatherDisplay:10.37,2013-01-05 02:30:00,
2013-01-04 22:00:00,30.2,24.2,29.83,South,178,1.0,6.0,78,0.00,CLR,,0.01,0.0,WeatherDisplay:10.37,2013-01-05 03:00:00,
2013-01-04 22:30:00,30.6,23.9,29.84,South,189,0.0,7.0,76,0.00,CLR,,0.01,0.0,WeatherDisplay:10.37,2013-01-05 03:30:00,
2013-01-04 23:00:00,30.6,23.6,29.84,SSW,205,1.0,5.0,75,0.00,CLR,,0.01,0.0,WeatherDisplay:10.37,2013-01-05 04:00:00,
2013-01-04 23:29:00,30.1,22.9,29.83,South,177,0.0,4.0,74,0.00,CLR,,0.01,0.0,WeatherDisplay:10.37,2013-01-05 04:29:00,